Temperature
21 22 21 21 21 20 20 19 19 18 17 16 17 17 17 17 17 17 17 17 17 17 17 17 17 17 17 17 17 17 17 17 17 17 17 17 17 17 17 17 17 17 17
22 22 22 22 22 21 20 20 19 18 18 18 17 17 17 17 17 17 17 17 17 17 17 17 17 17 17 17 17 17 17 17 17 17 17 17 17 17 17 17 17 17 17
22 22 22 22 22 22 21 21 20 19 19 18 18 17 17 17 17 17 16 17 17 17 17 17 17 17 17 17 17 17 17 17 17 17 17 17 17 17 17 17 17 17 17
22 22 22 22 22 22 21 21 21 20 19 18 18 18 17 17 17 17 16 16 17 17 17 17 17 17 17 17 17 17 17 17 17 17 17 17 16 16 17 17 17 17 17
22 22 22 22 21 21 21 21 21 20 19 18 18 17 17 17 17 17 16 16 16 16 16 16 16 16 16 17 17 17 16 17 17 17 16 16 16 16 17 17 17 17 17
22 21 21 21 21 21 20 20 20 20 19 19 18 18 17 17 17 16 16 16 16 16 16 16 16 16 16 16 16 16 16 16 17 17 16 16 16 16 16 17 17 17 17
21 20 19 20 20 20 20 19 19 19 19 18 18 18 17 16 16 16 16 16 16 16 16 16 16 16 16 16 16 16 16 16 16 16 16 16 16 16 16 16 17 17 17
20 19 18 19 19 19 18 18 18 18 18 18 18 17 17 16 16 16 15 15 15 15 15 16 16 16 16 16 16 16 16 16 16 16 16 16 16 16 17 17 17 17 17
19 19 18 18 18 17 17 17 17 17 17 17 17 16 16 15 15 15 15 15 15 15 15 15 15 16 16 16 16 16 16 16 16 16 16 16 16 16 16 17 17 17 17
18 18 18 17 17 17 17 16 16 16 16 16 16 15 15 15 15 15 15 15 15 15 15 14 15 15 15 15 16 16 16 16 16 16 16 16 16 16 16 16 16 16 17
17 17 16 16 16 17 17 16 15 15 14 14 14 15 15 15 14 14 14 14 14 14 14 14 14 14 14 15 15 15 15 15 15 16 15 16 16 16 16 16 16 16 16
16 16 16 16 16 16 16 15 15 14 14 14 14 14 14 14 14 14 14 14 14 14 14 13 13 13 14 14 15 15 15 16 15 15 15 15 15 16 16 16 16 16 16
14 14 14 15 15 15 15 14 14 14 14 14 14 14 14 14 14 14 14 14 14 14 14 13 13 13 13 14 15 15 15 15 16 15 15 15 15 15 15 15 16 16 16
14 14 14 14 14 14 14 14 14 14 14 14 14 14 14 14 14 14 13 13 13 13 13 13 13 13 13 13 14 14 15 15 15 15 15 15 15 15 15 15 15 15 16
13 13 13 13 13 13 13 13 13 13 13 14 14 14 13 13 14 14 14 13 13 13 13 13 13 13 13 13 13 13 14 14 14 14 14 14 14 15 15 15 15 15 15
12 12 13 13 13 13 13 13 13 13 13 13 13 13 13 13 13 14 14 13 13 13 13 13 13 13 13 13 13 13 13 14 14 14 14 14 14 14 14 14 14 15 15
10 11 12 12 12 13 13 13 13 13 13 13 12 13 13 13 13 13 13 13 13 12 12 12 12 12 12 12 13 13 13 13 13 13 14 14 14 14 14 14 14 14 14
9 10 10 11 11 12 12 12 12 12 12 12 12 12 12 12 13 13 13 13 12 12 12 12 12 12 12 12 12 13 13 13 13 13 13 14 14 14 14 14 14 14 14
8 8 8 8 9 9 10 11 12 12 12 12 12 12 12 12 12 12 12 12 12 12 11 12 12 12 12 12 12 12 12 13 13 13 13 13 13 13 14 14 13 13 14
7 7 7 7 7 7 8 9 10 11 11 11 11 11 11 11 11 11 11 12 12 11 11 11 11 11 11 12 12 12 12 12 12 13 13 13 13 13 13 13 13 13 13
6 6 6 6 5 5 5 6 6 7 8 8 9 9 9 10 10 10 10 11 11 11 10 11 11 11 11 11 11 11 12 12 12 12 12 12 13 13 13 13 13 13 13
6 5 5 5 5 5 5 4 4 5 5 5 6 7 8 8 8 9 9 10 10 10 10 10 10 11 11 11 10 10 11 11 12 12 12 12 12 12 12 12 12 12 12
4 4 4 4 4 4 4 4 4 4 4 5 5 6 6 7 7 8 9 9 10 10 10 10 10 10 10 10 10 10 10 11 11 11 12 12 12 12 12 12 12 12 12
3 3 3 3 3 3 3 3 3 3 3 3 3 4 4 5 6 7 8 8 9 9 9 9 9 10 10 10 10 10 10 10 10 10 10 10 11 11 11 11 12 12 12
2 2 1 1 1 1 2 2 1 1 2 2 2 3 3 4 5 6 6 7 8 8 9 9 9 9 9 9 9 9 9 9 9 10 9 9 10 10 10 11 11 11 11
1 1 0 0 -0 -0 0 0 0 0 1 1 1 1 2 3 4 4 5 6 6 7 8 9 9 9 9 9 9 9 9 9 9 9 9 9 9 9 9 9 9 10 10
Wind_Speed
4 9 15 15 14 12 11 9 8 7 7 9 8 6 6 6 5 5 5 6 5 4 3 3 4 3 3 4 5 6 7 8 8 8 8 7 8 9 9 8 10 9 9
8 12 15 16 15 13 12 11 10 9 7 7 7 7 6 5 6 6 6 6 6 6 6 5 4 4 4 4 4 5 6 6 6 6 6 6 7 9 10 10 10 9 9
9 13 15 17 16 15 13 11 11 10 9 8 7 7 6 6 5 5 7 8 9 8 8 7 5 5 5 5 5 5 6 6 5 4 4 3 5 8 9 10 10 10 10
10 14 15 17 16 15 13 12 11 11 10 9 8 7 6 5 4 3 4 7 9 9 9 7 5 5 5 5 5 5 7 6 5 3 3 3 5 8 9 10 10 10 10
9 15 16 18 16 14 13 12 12 11 10 9 8 7 7 6 4 3 3 4 6 7 8 7 6 5 6 6 6 6 7 7 6 3 2 4 8 11 11 11 10 11 11
8 11 13 15 13 12 11 11 11 11 11 10 8 8 9 8 6 5 4 4 4 4 6 6 6 6 6 6 6 7 8 8 6 4 3 3 11 14 13 12 11 11 11
5 5 8 10 9 9 9 10 10 10 11 10 9 8 8 8 8 7 7 6 4 3 4 4 5 6 6 7 7 8 9 9 7 5 4 4 11 15 15 13 11 10 10
7 6 6 7 8 8 8 8 9 10 10 9 9 8 8 9 9 8 8 6 5 5 5 4 5 6 7 8 8 8 9 10 8 8 6 6 12 16 15 14 12 11 9
6 5 3 3 6 7 7 7 8 8 8 8 9 9 8 8 10 10 9 8 8 8 7 5 4 5 6 7 8 9 10 11 8 8 7 7 14 16 16 15 14 12 10
8 7 4 2 2 4 7 9 9 8 9 9 10 10 9 8 9 9 8 9 9 8 9 8 6 5 6 7 7 8 10 11 9 9 7 8 15 16 16 16 15 13 11
10 8 6 5 4 4 8 10 11 11 11 11 10 9 9 9 9 9 10 12 11 11 11 10 10 10 9 9 9 9 9 9 9 9 8 9 15 17 17 17 15 13 13
10 9 8 6 6 8 5 4 6 8 10 11 10 10 10 10 11 11 12 16 16 16 15 14 14 13 12 10 10 11 9 10 10 10 11 13 16 17 17 17 16 15 15
11 13 11 9 9 9 6 5 5 7 8 9 10 11 10 10 10 10 9 11 13 14 12 11 11 11 10 9 9 9 9 10 10 11 13 16 19 19 18 18 18 16 16
17 19 17 13 12 11 9 5 5 5 4 4 7 8 7 4 4 4 4 6 7 7 6 6 6 8 9 11 10 9 9 9 10 11 13 18 20 19 19 20 20 18 17
20 20 18 18 18 14 11 8 7 5 5 5 6 7 5 3 4 4 3 4 5 5 4 3 4 6 7 7 9 8 8 9 11 12 12 19 22 20 20 21 21 20 19
17 17 17 18 17 16 14 13 9 11 11 8 7 8 7 4 3 4 4 4 3 5 5 5 6 6 6 6 8 9 8 8 10 13 14 18 23 23 22 22 22 22 21
14 16 18 16 16 16 15 13 13 14 16 11 9 9 7 5 4 3 4 4 5 6 6 5 5 4 5 5 7 8 7 7 7 10 14 15 18 22 23 23 23 23 23
12 15 16 17 17 16 12 12 13 15 15 14 16 15 12 8 6 3 4 5 5 6 4 6 6 5 5 5 5 6 6 6 9 8 10 12 14 15 19 21 23 24 24
10 11 13 13 14 13 10 11 12 14 13 15 17 17 17 14 8 4 4 5 6 5 6 7 7 6 5 5 5 5 5 5 7 8 8 9 11 13 14 18 21 22 24
9 9 10 11 12 12 10 9 9 11 12 14 14 18 23 18 13 5 5 6 6 5 5 5 7 6 5 4 4 4 5 5 5 6 7 6 7 11 13 13 15 18 20
12 12 12 11 11 10 8 8 9 10 11 11 10 18 21 22 19 10 6 6 5 5 6 6 5 6 5 3 2 3 4 4 4 5 5 5 7 8 11 12 12 13 13
15 14 13 13 13 11 7 5 4 4 5 6 6 12 18 20 19 14 12 8 6 5 6 5 5 4 4 4 4 2 3 4 3 2 3 4 5 4 6 8 10 11 11
16 17 17 16 17 15 11 6 5 4 5 6 10 13 14 20 20 16 15 10 7 6 6 6 6 6 5 3 4 4 3 5 3 3 1 1 3 4 5 6 7 9 10
15 14 15 16 16 16 12 8 8 8 6 6 8 11 16 18 19 19 16 13 8 6 6 6 5 5 5 4 2 2 3 3 2 2 3 3 2 1 3 4 6 6 9
13 13 14 15 15 14 13 11 10 8 8 9 10 12 13 15 16 19 17 14 10 7 7 7 5 5 4 5 4 3 2 2 2 2 1 3 3 3 1 3 5 5 7
13 13 15 16 14 14 14 14 12 12 14 16 15 14 14 13 14 17 18 17 13 9 7 7 7 7 5 5 4 4 4 3 3 3 2 1 1 3 3 1 3 5 6
Wind_Direction
174 172 171 170 169 169 166 164 163 155 128 133 139 149 156 164 168 163 158 156 162 172 179 173 169 163 151 133 132 137 133 121 111 104 102 106 111 112 103 93 106 99 96
162 170 172 173 174 175 175 175 172 170 157 147 156 166 171 179 188 192 197 197 195 196 199 199 195 189 181 160 159 149 138 131 129 119 113 118 124 124 116 105 105 105 98
151 170 176 176 177 178 180 181 179 178 175 173 176 176 178 188 191 209 211 212 210 208 207 208 202 194 195 181 177 173 162 155 155 145 132 136 145 136 127 117 110 107 103
158 172 178 180 181 181 181 185 187 186 188 189 187 184 184 187 190 217 229 220 214 213 216 217 211 203 206 197 190 188 183 177 177 167 151 183 184 150 135 124 115 111 108
163 176 181 181 182 183 184 190 195 195 200 201 197 197 200 203 209 222 233 210 204 206 207 208 207 206 207 209 209 207 200 192 200 202 224 240 192 162 146 135 124 117 111
174 179 181 181 181 184 191 198 203 204 210 208 207 213 209 205 212 220 194 161 158 173 183 187 195 204 210 216 221 221 214 206 206 214 265 222 173 164 154 145 136 127 119
126 148 170 179 181 186 198 207 212 215 222 216 217 219 215 205 208 211 190 166 170 188 190 190 200 212 220 224 225 223 222 222 209 218 230 199 180 168 160 155 150 141 130
114 124 156 178 183 191 205 217 222 226 232 232 236 224 227 224 213 216 204 187 200 217 220 219 223 227 232 234 232 224 218 221 216 220 226 214 194 177 169 165 163 159 150
105 101 117 177 187 197 212 227 235 236 236 239 251 235 224 235 226 221 216 209 216 225 227 230 242 249 246 245 239 229 222 222 214 217 228 218 197 183 178 173 173 172 168
60 60 44 349 263 237 231 231 232 235 235 237 254 242 228 240 244 230 222 207 212 219 219 217 223 245 256 257 250 239 231 228 221 222 228 225 206 192 186 180 178 179 179
45 40 40 36 7 295 257 244 235 235 235 234 235 234 232 234 239 238 233 220 218 214 211 215 220 228 235 242 244 244 237 226 223 226 226 227 207 197 191 184 181 181 181
23 19 18 14 18 19 356 276 254 257 253 243 232 230 231 230 234 238 242 236 233 218 213 220 227 230 232 236 243 246 236 226 219 224 224 226 212 203 196 188 184 183 183
9 10 4 8 14 18 8 7 338 314 285 259 249 246 243 242 244 242 241 235 229 222 223 234 239 234 229 232 240 244 238 231 225 224 222 222 216 213 204 194 188 187 188
21 15 9 10 9 6 4 356 339 323 318 299 285 279 256 253 256 246 226 224 223 226 228 235 238 237 233 235 238 239 238 235 230 228 226 218 209 209 205 198 193 192 194
22 15 12 17 14 7 2 355 347 337 332 322 313 308 280 260 264 260 243 232 227 229 230 232 232 240 240 240 241 236 231 228 230 226 224 217 207 205 206 203 199 198 199
19 14 9 17 13 13 12 4 355 348 336 331 329 323 315 297 280 276 268 258 246 240 236 232 236 236 238 238 242 239 235 230 230 226 219 214 209 205 208 208 206 204 203
16 13 12 14 12 12 11 6 3 358 351 339 330 324 316 306 296 279 269 264 257 254 251 247 248 243 250 254 255 250 239 225 218 216 211 206 207 209 209 212 211 210 209
16 13 9 11 10 10 8 4 2 360 359 353 340 326 308 290 273 251 252 257 258 258 249 248 246 246 246 252 260 259 249 232 218 211 204 201 201 204 210 214 214 214 214
8 9 7 6 6 3 360 2 2 360 357 353 348 341 324 303 279 240 247 259 264 258 251 249 241 225 235 249 258 260 256 244 230 219 207 201 200 201 203 211 215 218 217
358 1 5 5 2 358 354 355 359 1 357 352 350 347 340 325 302 267 251 267 270 263 262 251 241 225 220 233 254 267 261 250 243 232 221 208 202 204 203 205 212 223 222
355 352 351 352 345 344 346 350 355 356 350 346 344 343 342 338 327 304 266 254 251 248 253 249 238 229 224 202 217 278 292 269 245 240 231 218 213 207 201 203 205 211 219
347 345 343 340 331 327 322 314 318 321 315 318 319 336 339 335 330 323 294 262 240 239 249 243 228 217 209 181 182 211 292 316 304 279 242 226 221 208 204 197 196 199 200
358 356 354 345 341 336 328 317 318 316 315 340 344 341 337 333 326 324 309 278 243 220 224 224 215 195 195 194 180 172 194 239 298 330 340 229 198 194 194 183 181 182 178
0 358 353 347 345 343 341 336 339 346 340 333 333 329 328 328 325 323 319 297 261 223 214 218 205 190 172 178 167 160 172 174 189 318 344 4 0 150 160 153 152 151 153
348 350 348 342 340 339 341 340 341 343 335 330 330 325 324 322 320 319 317 310 285 249 216 206 190 176 171 170 166 157 135 108 128 141 284 339 354 358 44 137 136 136 142
347 348 345 343 341 344 350 355 352 345 338 334 332 325 323 318 314 311 314 312 299 275 233 202 188 173 169 166 167 159 155 157 171 155 170 232 296 319 340 35 132 136 142
Height
1518 1518 1517 1517 1517 1518 1518 1519 1519 1520 1521 1522 1522 1522 1523 1524 1525 1525 1525 1526 1526 1527 1527 1528 1528 1529 1530 1530 1531 1531 1532 1532 1533 1533 1534 1534 1534 1534 1534 1535 1535 1535 1535
1519 1518 1518 1518 1518 1518 1518 1518 1519 1519 1520 1521 1521 1522 1522 1523 1524 1524 1524 1525 1525 1526 1526 1527 1528 1528 1529 1530 1530 1531 1532 1532 1533 1533 1534 1534 1534 1534 1534 1535 1535 1535 1535
1520 1519 1519 1519 1519 1519 1519 1519 1519 1519 1520 1520 1520 1521 1521 1522 1522 1523 1524 1524 1524 1525 1525 1526 1526 1527 1528 1529 1529 1530 1531 1532 1532 1533 1533 1534 1534 1534 1534 1534 1535 1535 1535
1520 1520 1520 1520 1520 1520 1520 1520 1519 1519 1519 1519 1520 1520 1520 1520 1521 1522 1522 1523 1523 1523 1524 1524 1525 1526 1527 1527 1528 1529 1530 1530 1531 1531 1532 1532 1533 1534 1534 1534 1534 1534 1534
1520 1520 1521 1521 1521 1521 1521 1520 1519 1518 1518 1519 1519 1519 1519 1520 1520 1520 1521 1522 1522 1522 1522 1523 1524 1524 1525 1526 1526 1527 1528 1529 1530 1530 1531 1531 1532 1533 1533 1534 1534 1534 1534
1521 1521 1521 1521 1521 1521 1520 1520 1519 1519 1518 1518 1518 1518 1518 1518 1519 1519 1520 1520 1520 1520 1521 1521 1522 1523 1523 1524 1524 1525 1526 1528 1528 1529 1529 1530 1531 1532 1533 1533 1534 1534 1534
1521 1521 1521 1521 1521 1520 1520 1519 1519 1518 1518 1517 1517 1517 1517 1517 1517 1517 1518 1519 1519 1519 1519 1519 1520 1521 1521 1522 1522 1523 1524 1525 1526 1527 1528 1529 1530 1531 1531 1532 1533 1533 1533
1523 1522 1522 1521 1520 1520 1520 1519 1518 1517 1517 1516 1516 1515 1515 1516 1516 1516 1516 1516 1517 1517 1517 1517 1518 1518 1519 1520 1520 1521 1522 1523 1524 1525 1526 1527 1528 1529 1530 1531 1531 1532 1532
1523 1523 1522 1521 1520 1519 1519 1518 1517 1516 1515 1515 1514 1514 1514 1514 1514 1514 1514 1514 1515 1515 1515 1515 1516 1516 1516 1517 1518 1519 1519 1521 1521 1523 1524 1525 1526 1527 1528 1529 1530 1530 1531
1524 1523 1522 1521 1520 1519 1518 1517 1516 1515 1514 1514 1513 1513 1513 1512 1512 1512 1512 1512 1512 1513 1513 1513 1513 1514 1514 1515 1515 1516 1517 1518 1519 1520 1521 1522 1523 1524 1526 1527 1528 1528 1529
1525 1525 1524 1521 1519 1518 1516 1516 1515 1514 1513 1512 1512 1512 1511 1511 1511 1510 1510 1510 1510 1510 1510 1510 1510 1511 1511 1512 1513 1513 1513 1514 1516 1517 1518 1519 1520 1522 1523 1525 1525 1526 1527
1527 1526 1525 1522 1519 1517 1515 1515 1514 1513 1512 1511 1510 1510 1510 1509 1509 1508 1508 1508 1508 1508 1507 1507 1507 1507 1507 1507 1508 1509 1510 1511 1512 1513 1514 1516 1517 1519 1521 1522 1523 1524 1525
1528 1526 1525 1522 1519 1516 1515 1514 1513 1512 1510 1509 1509 1508 1507 1507 1506 1506 1505 1505 1505 1505 1504 1504 1504 1503 1503 1502 1503 1504 1505 1506 1507 1509 1510 1512 1513 1515 1517 1518 1520 1521 1522
1527 1525 1523 1520 1518 1516 1515 1514 1512 1511 1509 1508 1506 1505 1504 1504 1503 1503 1502 1502 1502 1501 1501 1500 1500 1499 1499 1498 1498 1499 1500 1501 1502 1504 1505 1507 1509 1511 1513 1514 1516 1518 1519
1527 1525 1523 1520 1518 1515 1514 1513 1512 1510 1509 1507 1505 1504 1502 1501 1500 1499 1498 1498 1498 1497 1497 1496 1495 1495 1495 1494 1494 1494 1495 1496 1497 1499 1500 1502 1504 1507 1509 1510 1512 1514 1515
1529 1527 1524 1521 1518 1516 1514 1511 1509 1508 1507 1506 1505 1503 1501 1499 1498 1496 1495 1494 1494 1493 1492 1492 1491 1490 1490 1490 1490 1490 1490 1491 1492 1494 1495 1497 1500 1502 1504 1506 1507 1509 1511
1531 1528 1524 1521 1519 1516 1513 1511 1509 1506 1504 1502 1502 1501 1499 1497 1496 1494 1492 1491 1489 1488 1487 1487 1486 1485 1485 1485 1485 1485 1485 1486 1486 1488 1490 1492 1494 1496 1498 1500 1502 1504 1506
1532 1528 1525 1522 1518 1515 1512 1509 1506 1504 1502 1499 1497 1496 1495 1494 1492 1490 1488 1486 1485 1484 1482 1481 1480 1480 1480 1480 1480 1480 1480 1481 1481 1482 1484 1485 1488 1490 1492 1494 1496 1498 1501
1533 1529 1525 1521 1517 1513 1510 1506 1503 1500 1498 1496 1494 1492 1489 1488 1487 1485 1483 1482 1480 1478 1477 1476 1475 1475 1474 1474 1474 1474 1475 1475 1475 1476 1478 1479 1481 1483 1486 1488 1491 1493 1495
1533 1529 1524 1520 1515 1511 1508 1503 1499 1496 1493 1491 1489 1487 1484 1482 1481 1480 1478 1476 1475 1472 1471 1471 1470 1470 1469 1469 1469 1469 1469 1469 1469 1470 1472 1473 1474 1476 1479 1481 1484 1487 1490
1533 1529 1524 1519 1515 1510 1505 1501 1495 1491 1489 1486 1483 1481 1478 1475 1472 1471 1471 1470 1469 1467 1466 1465 1464 1464 1464 1464 1463 1463 1463 1464 1464 1465 1466 1467 1469 1470 1472 1475 1477 1480 1484
1534 1530 1525 1521 1515 1510 1505 1500 1495 1490 1487 1484 1480 1475 1472 1469 1466 1462 1461 1462 1461 1460 1459 1459 1458 1458 1459 1459 1459 1459 1458 1459 1458 1459 1460 1461 1463 1464 1466 1468 1471 1474 1477
1534 1529 1524 1518 1513 1507 1502 1496 1491 1485 1481 1477 1472 1468 1464 1461 1459 1456 1453 1453 1453 1452 1452 1452 1452 1453 1453 1454 1454 1455 1455 1454 1454 1454 1455 1456 1457 1459 1460 1462 1464 1467 1471
1534 1528 1522 1515 1509 1504 1498 1493 1487 1481 1477 1472 1468 1464 1460 1456 1452 1450 1447 1445 1446 1446 1445 1446 1446 1446 1447 1448 1449 1450 1451 1451 1452 1451 1451 1452 1453 1454 1456 1457 1459 1462 1465
1532 1525 1517 1511 1505 1499 1494 1489 1484 1480 1475 1469 1465 1459 1455 1451 1447 1444 1442 1439 1439 1440 1440 1439 1439 1440 1441 1443 1444 1445 1446 1448 1448 1449 1449 1450 1451 1452 1453 1453 1455 1457 1460
1530 1523 1515 1508 1502 1496 1490 1485 1481 1476 1471 1465 1459 1453 1448 1444 1440 1437 1435 1433 1432 1432 1433 1433 1433 1434 1435 1437 1439 1439 1441 1443 1444 1446 1446 1448 1449 1451 1452 1452 1453 1455 1458